H1 CPF 2 NER 2023 10 1 9 274 01 glonass143 H2 2007501 9143 46805 2023 10 1 0 0 0 2023 10 4 23 45 0 900 1 1 0 0 0 1 H9 10 0 60218 0.00000 0 20992699.278 8385042.667 11814120.994 10 0 60218 900.00000 0 22124085.485 8997197.282 8947155.090 10 0 60218 1800.00000 0 22983032.200 9342161.605 5906307.340 10 0 60218 2700.00000 0 23523489.989 9453497.722 2750646.437 10 0 60218 3600.00000 0 23709243.013 9373719.343 -458494.987 10 0 60218 4500.00000 0 23515508.723 9152253.406 -3658716.325 10 0 60218 5400.00000 0 22930076.153 8843115.205 -6787768.185 10 0 60218 6300.00000 0 21953933.674 8502396.221 -9784770.285 10 0 60218 7200.00000 0 20601358.656 8185672.021 -12591403.426 10 0 60218 8100.00000 0 18899464.346 7945440.997 -15153051.484 10 0 60218 9000.00000 0 16887222.281 7828703.466 -17419870.398 10 0 60218 9900.00000 0 14614000.792 7874784.599 -19347762.749 10 0 60218 10800.00000 0 12137680.602 8113494.169 -20899238.605 10 0 60218 11700.00000 0 9522426.246 8563701.648 -22044145.800 10 0 60218 12600.00000 0 6836206.415 9232387.452 -22760255.516 10 0 60218 13500.00000 0 4148166.674 10114210.825 -23033692.096 10 0 60218 14400.00000 0 1525963.886 11191612.963 -22859199.102 10 0 60218 15300.00000 0 -966826.873 12435451.278 -22240236.889 10 0 60218 16200.00000 0 -3273125.515 13806138.367 -21188910.186 10 0 60218 17100.00000 0 -5344480.556 15255237.929 -19725727.459 10 0 60218 18000.00000 0 -7142835.293 16727450.690 -17879196.987 10 0 60218 18900.00000 0 -8641854.239 18162906.957 -15685267.694 10 0 60218 19800.00000 0 -9827755.964 19499669.532 -13186625.770 10 0 60218 20700.00000 0 -10699619.204 20676341.829 -10431860.870 10 0 60218 21600.00000 0 -11269151.205 21634671.547 -7474518.269 10 0 60218 22500.00000 0 -11559929.851 22322040.489 -4372055.581 10 0 60218 23400.00000 0 -11606153.112 22693735.810 -1184724.577 10 0 60218 24300.00000 0 -11450950.054 22714907.239 2025599.909 10 0 60218 25200.00000 0 -11144325.929 22362128.055 5196620.974 10 0 60218 26100.00000 0 -10740829.074 21624494.278 8266827.000 10 0 60218 27000.00000 0 -10297038.861 20504215.983 11176681.868 10 0 60218 27900.00000 0 -9868981.146 19016675.920 13869775.032 10 0 60218 28800.00000 0 -9509580.466 17189952.891 16293909.430 10 0 60218 29700.00000 0 -9266256.352 15063829.572 18402106.641 10 0 60218 30600.00000 0 -9178764.870 12688325.766 20153510.506 10 0 60218 31500.00000 0 -9277376.033 10121817.613 21514172.472 10 0 60218 32400.00000 0 -9581463.555 7428820.173 22457704.260 10 0 60218 33300.00000 0 -10098566.250 4677524.494 22965785.989 10 0 60218 34200.00000 0 -10823960.700 1937190.260 23028520.420 10 0 60218 35100.00000 0 -11740763.717 -724499.097 22644626.810 10 0 60218 36000.00000 0 -12820561.111 -3244010.403 21821470.565 10 0 60218 36900.00000 0 -14024537.529 -5564358.270 20574927.766 10 0 60218 37800.00000 0 -15305061.237 -7637227.709 18929086.520 10 0 60218 38700.00000 0 -16607658.654 -9424734.519 16915789.976 10 0 60218 39600.00000 0 -17873297.004 -10900750.845 14574028.820 10 0 60218 40500.00000 0 -19040880.133 -12051741.153 11949193.935 10 0 60218 41400.00000 0 -20049853.236 -12877074.067 9092202.698 10 0 60218 42300.00000 0 -20842807.094 -13388797.243 6058515.166 10 0 60218 43200.00000 0 -21367971.915 -13610885.035 2907058.758 10 0 60218 44100.00000 0 -21581495.080 -13577990.902 -300917.774 10 0 60218 45000.00000 0 -21449405.738 -13333757.567 -3503038.526 10 0 60218 45900.00000 0 -20949182.206 -12928756.854 -6637019.013 10 0 60218 46800.00000 0 -20070854.753 -12418146.979 -9641884.653 10 0 60218 47700.00000 0 -18817595.949 -11859147.261 -12459164.522 10 0 60218 48600.00000 0 -17205772.494 -11308438.041 -15034036.260 10 0 60218 49500.00000 0 -15264455.309 -10819596.769 -17316399.082 10 0 60218 50400.00000 0 -13034407.635 -10440679.623 -19261853.361 10 0 60218 51300.00000 0 -10566592.972 -10212051.703 -20832567.400 10 0 60218 52200.00000 0 -7920264.880 -10164558.074 -21998014.400 10 0 60218 53100.00000 0 -5160718.243 -10318113.347 -22735565.394 10 0 60218 54000.00000 0 -2356795.589 -10680769.520 -23030926.912 10 0 60218 54900.00000 0 421747.832 -11248301.534 -22878415.251 10 0 60218 55800.00000 0 3106910.786 -12004327.955 -22281062.438 10 0 60218 56700.00000 0 5635034.073 -12920961.647 -21250552.230 10 0 60218 57600.00000 0 7949202.819 -13959962.898 -19806987.738 10 0 60218 58500.00000 0 10001363.847 -15074346.332 -17978495.436 10 0 60218 59400.00000 0 11754071.052 -16210373.807 -15800673.476 10 0 60218 60300.00000 0 13181787.307 -17309849.301 -13315895.140 10 0 60218 61200.00000 0 14271689.995 -18312618.988 -10572481.134 10 0 60218 62100.00000 0 15023948.134 -19159171.108 -7623756.958 10 0 60218 63000.00000 0 15451461.206 -19793226.029 -4527013.862 10 0 60218 63900.00000 0 15579072.332 -20164207.249 -1342393.834 10 0 60218 64800.00000 0 15442290.510 -20229489.208 1868279.425 10 0 60218 65700.00000 0 15085577.119 -19956327.158 5042700.618 10 0 60218 66600.00000 0 14560270.112 -19323387.807 8119290.489 10 0 60218 67500.00000 0 13922234.277 -18321816.279 11038387.472 10 0 60218 68400.00000 0 13229337.250 -16955794.416 13743400.356 10 0 60218 69300.00000 0 12538857.937 -15242566.775 16181899.806 10 0 60218 70200.00000 0 11904936.535 -13211932.810 18306628.139 10 0 60218 71100.00000 0 11376173.275 -10905225.923 20076408.407 10 0 60218 72000.00000 0 10993476.556 -8373821.199 21456935.971 10 0 60218 72900.00000 0 10788250.497 -5677232.995 22421438.027 10 0 60218 73800.00000 0 10780997.711 -2880880.328 22951189.084 10 0 60218 74700.00000 0 10980395.769 -53611.575 23035872.943 10 0 60218 75600.00000 0 11382886.191 2734910.212 22673784.512 10 0 60218 76500.00000 0 11972793.545 5416854.329 21871867.526 10 0 60218 77400.00000 0 12722970.296 7928793.300 20645587.094 10 0 60218 78300.00000 0 13595941.222 10214092.098 19018638.898 10 0 60218 79200.00000 0 14545500.321 12225017.467 17022499.743 10 0 60218 80100.00000 0 15518694.160 13924480.292 14695827.126 10 0 60218 81000.00000 0 16458109.117 15287338.976 12083718.377 10 0 60218 81900.00000 0 17304366.930 16301209.706 9236842.730 10 0 60218 82800.00000 0 17998723.689 16966749.915 6210462.436 10 0 60218 83700.00000 0 18485662.591 17297403.204 3063361.430 10 0 60218 84600.00000 0 18715370.559 17318616.612 -143297.744 10 0 60218 85500.00000 0 18645993.261 17066563.487 -3347166.281 10 0 60219 0.00000 0 18245572.226 16586426.239 -6485926.733 10 0 60219 900.00000 0 17493580.593 15930311.778 -9498513.134 10 0 60219 1800.00000 0 16381991.876 15154889.098 -12326304.777 10 0 60219 2700.00000 0 14915834.552 14318848.827 -14914275.138 10 0 60219 3600.00000 0 13113208.248 13480293.570 -17212068.599 10 0 60219 4500.00000 0 11004759.580 12694169.924 -19174985.053 10 0 60219 5400.00000 0 8632638.737 12009851.383 -20764852.597 10 0 60219 6300.00000 0 6048979.778 11468974.671 -21950771.221 10 0 60219 7200.00000 0 3313967.681 11103621.121 -22709713.081 10 0 60219 8100.00000 0 493572.439 10934919.849 -23026967.994 10 0 60219 9000.00000 0 -2342955.730 10972131.467 -22896425.860 10 0 60219 9900.00000 0 -5125726.018 11212250.659 -22320690.949 10 0 60219 10800.00000 0 -7786872.122 11640143.929 -21311026.241 10 0 60219 11700.00000 0 -10263132.430 12229216.277 -19887129.251 10 0 60219 12600.00000 0 -12498238.612 12942578.224 -18076743.958 10 0 60219 13500.00000 0 -14445014.034 13734663.575 -15915116.597 10 0 60219 14400.00000 0 -16067095.620 14553229.290 -13444305.984 10 0 60219 15300.00000 0 -17340208.537 15341652.827 -10712361.971 10 0 60219 16200.00000 0 -18252941.839 16041429.692 -7772388.093 10 0 60219 17100.00000 0 -18806994.135 16594765.609 -4681506.816 10 0 60219 18000.00000 0 -19016880.515 16947153.667 -1499747.769 10 0 60219 18900.00000 0 -18909114.617 17049827.538 1711119.201 10 0 60219 19800.00000 0 -18520901.639 16861987.097 4888783.214 10 0 60219 20700.00000 0 -17898398.552 16352702.485 7971600.260 10 0 60219 21600.00000 0 -17094615.778 15502416.209 10899786.264 10 0 60219 22500.00000 0 -16167049.408 14303979.876 13616572.272 10 0 60219 23400.00000 0 -15175144.027 12763181.667 16069299.566 10 0 60219 24300.00000 0 -14177693.005 10898741.978 18210433.960 10 0 60219 25200.00000 0 -13230285.375 8741776.741 19998480.306 10 0 60219 26100.00000 0 -12382906.147 6334749.992 21398780.215 10 0 60219 27000.00000 0 -11677790.259 3729958.305 22384178.384 10 0 60219 27900.00000 0 -11147619.622 987608.873 22935545.375 10 0 60219 28800.00000 0 -10814138.329 -1826430.261 23042147.273 10 0 60219 29700.00000 0 -10687243.752 -4643115.936 22701855.431 10 0 60219 30600.00000 0 -10764591.463 -7392849.952 21921192.212 10 0 60219 31500.00000 0 -11031730.734 -10008126.212 20715211.551 10 0 60219 32400.00000 0 -11462765.288 -12426096.331 19107215.978 10 0 60219 33300.00000 0 -12021512.175 -14590948.246 17128314.715 10 0 60219 34200.00000 0 -12663110.769 -16455999.643 14816830.339 10 0 60219 35100.00000 0 -13336014.883 -17985419.556 12217564.456 10 0 60219 36000.00000 0 -13984284.683 -19155506.582 9380935.604 10 0 60219 36900.00000 0 -14550082.033 -19955470.344 6362005.364 10 0 60219 37800.00000 0 -14976263.993 -20387683.491 3219411.091 10 0 60219 38700.00000 0 -15208964.491 -20467393.638 14225.854 10 0 60219 39600.00000 0 -15200054.313 -20221907.413 -3191232.019 10 0 60219 40500.00000 0 -14909374.353 -19689281.191 -6334616.110 10 0 60219 41400.00000 0 -14306646.370 -18916574.084 -9354771.384 10 0 60219 42300.00000 0 -13372979.080 -17957737.430 -12192931.321 10 0 60219 43200.00000 0 -12101904.484 -16871230.557 -14793868.523 10 0 60219 44100.00000 0 -10499899.259 -15717464.217 -17106975.616 10 0 60219 45000.00000 0 -8586367.937 -14556180.317 -19087254.785 10 0 60219 45900.00000 0 -6393087.402 -13443879.130 -20696196.294 10 0 60219 46800.00000 0 -3963135.010 -12431402.928 -21902528.790 10 0 60219 47700.00000 0 -1349344.439 -11561778.084 -22682826.871 10 0 60219 48600.00000 0 1387646.855 -10868406.517 -23021964.371 10 0 60219 49500.00000 0 4181677.608 -10373682.300 -22913404.946 10 0 60219 50400.00000 0 6963575.559 -10088091.181 -22359324.722 10 0 60219 51300.00000 0 9663798.909 -10009830.212 -21370565.027 10 0 60219 52200.00000 0 12215096.952 -10124962.706 -19966416.471 10 0 60219 53100.00000 0 14555079.673 -10408101.178 -18174238.829 10 0 60219 54000.00000 0 16628589.983 -10823588.644 -16028924.324 10 0 60219 54900.00000 0 18389780.560 -11327127.728 -13572214.851 10 0 60219 55800.00000 0 19803809.603 -11867788.158 -10851886.589 10 0 60219 56700.00000 0 20848085.793 -12390307.315 -7920817.963 10 0 60219 57600.00000 0 21513011.659 -12837586.207 -4835959.244 10 0 60219 58500.00000 0 21802195.513 -13153275.011 -1657224.098 10 0 60219 59400.00000 0 21732124.481 -13284338.629 1553675.154 10 0 60219 60300.00000 0 21331313.680 -13183493.636 4734425.672 10 0 60219 61200.00000 0 20638968.522 -12811413.509 7823322.123 10 0 60219 62100.00000 0 19703217.432 -12138608.885 10760461.054 10 0 60219 63000.00000 0 18578990.064 -11146903.369 13488898.517 10 0 60219 63900.00000 0 17325630.728 -9830442.451 15955748.695 10 0 60219 64800.00000 0 16004347.448 -8196192.674 18113202.735 10 0 60219 65700.00000 0 14675603.651 -6263909.453 19919448.635 10 0 60219 66600.00000 0 13396561.502 -4065574.026 21339475.162 10 0 60219 67500.00000 0 12218683.451 -1644321.943 22345744.988 10 0 60219 68400.00000 0 11185591.727 947093.567 22918724.803 10 0 60219 69300.00000 0 10331274.653 3648240.876 23047262.688 10 0 60219 70200.00000 0 9678714.177 6393272.861 22728805.800 10 0 60219 71100.00000 0 9238991.538 9113421.107 21969454.185 10 0 60219 72000.00000 0 9010908.235 11739619.330 20783849.366 10 0 60219 72900.00000 0 8981138.097 14205148.526 19194899.243 10 0 60219 73800.00000 0 9124904.245 16448195.068 17233343.752 10 0 60219 74700.00000 0 9407152.837 18414216.169 14937168.657 10 0 60219 75600.00000 0 9784174.637 20058014.762 12350877.782 10 0 60219 76500.00000 0 10205606.492 21345437.452 9524636.747 10 0 60219 77400.00000 0 10616728.540 22254624.581 6513304.114 10 0 60219 78300.00000 0 10960960.153 22776759.896 3375368.195 10 0 60219 79200.00000 0 11182448.821 22916288.188 171810.052 10 0 60219 80100.00000 0 11228641.826 22690591.542 -3035085.009 10 0 60219 81000.00000 0 11052730.950 22129137.797 -6182943.812 10 0 60219 81900.00000 0 10615865.546 21272137.156 -9210525.203 10 0 60219 82800.00000 0 9889038.965 20168763.883 -12058918.777 10 0 60219 83700.00000 0 8854567.074 18875018.528 -14672698.276 10 0 60219 84600.00000 0 7507094.942 17451321.361 -17001006.389 10 0 60219 85500.00000 0 5854087.784 15959939.097 -18998549.224 10 0 60220 0.00000 0 3915784.366 14462354.006 -20626480.544 10 0 60220 900.00000 0 1724612.555 13016685.782 -21853159.275 10 0 60220 1800.00000 0 -675906.804 11675276.893 -22654763.471 10 0 60220 2700.00000 0 -3232726.068 10482540.168 -23015752.004 10 0 60220 3600.00000 0 -5885239.748 9473160.794 -22929163.092 10 0 60220 4500.00000 0 -8567575.603 8670726.822 -22396745.244 10 0 60220 5400.00000 0 -11211112.652 8086845.025 -21428918.314 10 0 60220 6300.00000 0 -13747121.711 7720778.217 -20044565.779 10 0 60220 7200.00000 0 -16109418.863 7559618.164 -18270662.553 10 0 60220 8100.00000 0 -18236921.845 7578985.614 -16141745.776 10 0 60220 9000.00000 0 -20076003.394 7744226.836 -13699238.979 10 0 60220 9900.00000 0 -21582544.043 8012055.148 -10990642.904 10 0 60220 10800.00000 0 -22723599.450 8332567.228 -8068608.847 10 0 60220 11700.00000 0 -23478613.511 8651548.256 -4989912.671 10 0 60220 12600.00000 0 -23840127.470 8912967.810 -1814349.695 10 0 60220 13500.00000 0 -23813956.466 9061560.488 1396427.810 10 0 60220 14400.00000 0 -23418827.219 9045381.763 4580107.700 10 0 60220 15300.00000 0 -22685493.170 8818230.724 7674926.096 10 0 60220 16200.00000 0 -21655365.214 8341837.132 10620863.037 10 0 60220 17100.00000 0 -20378716.276 7587720.251 13360802.499 10 0 60220 18000.00000 0 -18912535.685 6538640.832 15841634.485 10 0 60220 18900.00000 0 -17318123.564 5189584.722 18015278.280 10 0 60220 19800.00000 0 -15658526.046 3548236.235 19839607.673 10 0 60220 20700.00000 0 -13995918.372 1634920.624 21279260.954 10 0 60220 21600.00000 0 -12389044.783 -517982.972 22306320.806 10 0 60220 22500.00000 0 -10890821.430 -2867134.890 22900851.689 10 0 60220 23400.00000 0 -9546201.628 -5359790.500 23051284.887 10 0 60220 24300.00000 0 -8390391.712 -7935754.833 22754644.132 10 0 60220 25200.00000 0 -7447491.223 -10529656.691 22016607.465 10 0 60220 26100.00000 0 -6729613.646 -13073449.298 20851403.858 10 0 60220 27000.00000 0 -6236523.979 -15499035.078 19281545.995 10 0 60220 27900.00000 0 -5955808.112 -17740906.624 17337403.509 10 0 60220 28800.00000 0 -5863566.849 -19738694.882 15056623.925 10 0 60220 29700.00000 0 -5925605.503 -21439518.950 12483411.479 10 0 60220 30600.00000 0 -6099069.127 -22800039.682 9667676.754 10 0 60220 31500.00000 0 -6334454.566 -23788131.182 6664072.894 10 0 60220 32400.00000 0 -6577914.298 -24384099.933 3530936.562 10 0 60220 33300.00000 0 -6773754.423 -24581400.009 329154.035 10 0 60220 34200.00000 0 -6867020.558 -24386813.896 -2879025.303 10 0 60220 35100.00000 0 -6806061.308 -23820090.965 -6031204.534 10 0 60220 36000.00000 0 -6544959.691 -22913058.611 -9066059.466 10 0 60220 36900.00000 0 -6045728.249 -21708243.478 -11924538.940 10 0 60220 37800.00000 0 -5280173.556 -20257061.032 -14551020.950 10 0 60220 38700.00000 0 -4231349.811 -18617650.093 -16894401.277 10 0 60220 39600.00000 0 -2894538.690 -16852443.938 -18909092.792 10 0 60220 40500.00000 0 -1277712.795 -15025580.605 -20555915.586 10 0 60220 41400.00000 0 598538.083 -13200261.653 -21802860.481 10 0 60220 42300.00000 0 2701615.831 -11436170.528 -22625711.088 10 0 60220 43200.00000 0 4988033.461 -9787058.844 -23008512.614 10 0 60220 44100.00000 0 7404999.040 -8298601.510 -22943878.660 10 0 60220 45000.00000 0 9892398.543 -7006610.042 -22433130.470 10 0 60220 45900.00000 0 12385095.353 -5935678.056 -21486266.326 10 0 60220 46800.00000 0 14815450.952 -5098314.619 -20121762.054 10 0 60220 47700.00000 0 17115962.048 -4494600.511 -18366206.770 10 0 60220 48600.00000 0 19221904.536 -4112380.417 -16253781.161 10 0 60220 49500.00000 0 21073874.422 -3927981.505 -13825588.573 10 0 60220 50400.00000 0 22620120.055 -3907426.729 -11128852.039 10 0 60220 51300.00000 0 23818568.783 -4008090.447 -8215992.997 10 0 60220 52200.00000 0 24638463.922 -4180725.283 -5143609.761 10 0 60220 53100.00000 0 25061544.233 -4371773.710 -1971375.843 10 0 60220 54000.00000 0 25082717.335 -4525865.818 1239120.208 10 0 60220 54900.00000 0 24710199.674 -4588397.088 4425570.688 10 0 60220 55800.00000 0 23965118.075 -4508076.717 7526156.853 10 0 60220 56700.00000 0 22880590.405 -4239338.469 10480745.710 10 0 60220 57600.00000 0 21500324.574 -3744511.976 13232052.337 10 0 60220 58500.00000 0 19876795.142 -2995662.646 15726745.352 10 0 60220 59400.00000 0 18069074.158 -1976022.345 17916474.566 10 0 60220 60300.00000 0 16140406.982 -680950.247 19758801.503 10 0 60220 61200.00000 0 14155634.177 881617.152 21218015.494 10 0 60220 62100.00000 0 12178566.568 2691246.561 22265820.317 10 0 60220 63000.00000 0 10269422.225 4715616.773 22881878.871 10 0 60220 63900.00000 0 8482431.338 6911631.806 23054205.894 10 0 60220 64800.00000 0 6863707.836 9226993.461 22779401.521 10 0 60220 65700.00000 0 5449475.467 11602169.458 22062721.207 10 0 60220 66600.00000 0 4264721.492 13972676.867 20917980.400 10 0 60220 67500.00000 0 3322333.402 16271587.340 19367295.222 10 0 60220 68400.00000 0 2622754.240 18432151.202 17440663.330 10 0 60220 69300.00000 0 2154170.554 20390432.070 15175392.056 10 0 60220 70200.00000 0 1893224.919 22087842.809 12615383.855 10 0 60220 71100.00000 0 1806222.945 23473477.201 9810291.886 10 0 60220 72000.00000 0 1850783.889 24506139.733 6814561.333 10 0 60220 72900.00000 0 1977865.055 25155988.120 3686374.549 10 0 60220 73800.00000 0 2134074.166 25405719.100 486520.304 10 0 60220 74700.00000 0 2264171.390 25251247.031 -2722790.685 10 0 60220 75600.00000 0 2313654.313 24701846.127 -5879140.436 10 0 60220 76500.00000 0 2231315.434 23779749.806 -8921124.291 10 0 60220 77400.00000 0 1971662.641 22519223.695 -11789552.727 10 0 60220 78300.00000 0 1497098.873 20965151.144 -14428610.177 10 0 60220 79200.00000 0 779767.365 19171190.851 -16786947.475 10 0 60220 80100.00000 0 -197016.916 17197584.277 -18818686.008 10 0 60220 81000.00000 0 -1437811.377 15108705.300 -20484313.634 10 0 60220 81900.00000 0 -2934606.969 12970455.222 -21751454.746 10 0 60220 82800.00000 0 -4666925.981 10847612.600 -22595499.570 10 0 60220 83700.00000 0 -6602453.264 8801248.936 -23000080.679 10 0 60220 84600.00000 0 -8698175.264 6886318.140 -22957387.853 10 0 60220 85500.00000 0 -10901979.779 5149520.153 -22468315.578 10 0 60221 0.00000 0 -13154649.875 3627527.375 -21542440.825 10 0 60221 900.00000 0 -15392170.280 2345646.202 -20197831.364 10 0 60221 1800.00000 0 -17548247.243 1316970.369 -18460689.914 10 0 60221 2700.00000 0 -19556940.900 542057.324 -16364839.646 10 0 60221 3600.00000 0 -21355297.485 9141.642 -13951062.276 10 0 60221 4500.00000 0 -22885872.829 -305125.963 -11266301.367 10 0 60221 5400.00000 0 -24099041.731 -434446.598 -8362746.482 10 0 60221 6300.00000 0 -24954996.936 -421201.483 -5296816.149 10 0 60221 7200.00000 0 -25425354.428 -314412.413 -2128059.657 10 0 60221 8100.00000 0 -25494298.291 -167421.569 1082000.750 10 0 60221 9000.00000 0 -25159217.715 -35389.618 4271064.542 10 0 60221 9900.00000 0 -24430810.054 27281.524 7377260.964 10 0 60221 10800.00000 0 -23332646.192 -30508.136 10340346.950 10 0 60221 11700.00000 0 -21900216.967 -254155.291 13102871.679 10 0 60221 12600.00000 0 -20179500.981 -681195.350 15611285.347 10 0 60221 13500.00000 0 -18225113.916 -1339479.036 17816971.123 10 0 60221 14400.00000 0 -16098116.676 -2245760.597 19677180.882 10 0 60221 15300.00000 0 -13863573.579 -3404757.440 21155857.288 10 0 60221 16200.00000 0 -11587961.876 -4808721.228 22224327.132 10 0 60221 17100.00000 0 -9336539.721 -6437539.367 22861853.229 10 0 60221 18000.00000 0 -7170781.238 -8259363.737 23056034.797 10 0 60221 18900.00000 0 -5145984.334 -10231741.802 22803048.955 10 0 60221 19800.00000 0 -3309149.705 -12303204.465 22107728.716 10 0 60221 20700.00000 0 -1697218.287 -14415246.004 20983475.738 10 0 60221 21600.00000 0 -335739.685 -16504615.160 19452008.932 10 0 60221 22500.00000 0 761973.676 -18505823.200 17542952.959 10 0 60221 23400.00000 0 1595171.895 -20353765.449 15293273.589 10 0 60221 24300.00000 0 2175459.243 -21986347.568 12746569.801 10 0 60221 25200.00000 0 2526061.190 -23347007.187 9952235.335 10 0 60221 26100.00000 0 2680597.841 -24387025.278 6964505.170 10 0 60221 27000.00000 0 2681415.742 -25067530.000 3841404.896 10 0 60221 27900.00000 0 2577548.796 -25361108.290 643623.165 10 0 60221 28800.00000 0 2422394.990 -25252956.605 -2566670.698 10 0 60221 29700.00000 0 2271207.905 -24741521.558 -5727040.460 10 0 60221 30600.00000 0 2178510.168 -23838602.656 -8776003.858 10 0 60221 31500.00000 0 2195539.416 -22568912.099 -11654235.904 10 0 60221 32400.00000 0 2367836.192 -20969109.697 -14305730.348 10 0 60221 33300.00000 0 2733077.108 -19086353.210 -16678895.886 10 0 60221 34200.00000 0 3319246.231 -16976424.950 -18727565.092 10 0 60221 35100.00000 0 4143223.132 -14701513.384 -20411896.020 10 0 60221 36000.00000 0 5209848.332 -12327742.869 -21699148.774 10 0 60221 36900.00000 0 6511506.486 -9922555.141 -22564321.956 10 0 60221 37800.00000 0 8028245.712 -7552052.079 -22990636.860 10 0 60221 38700.00000 0 9728428.791 -5278410.626 -22969860.380 10 0 60221 39600.00000 0 11569889.480 -3157477.435 -22502460.760 10 0 60221 40500.00000 0 13501545.971 -1236642.947 -21597593.581 10 0 60221 41400.00000 0 15465404.324 446917.328 -20272918.617 10 0 60221 42300.00000 0 17398868.250 1867562.114 -18554251.415 10 0 60221 43200.00000 0 19237258.864 3012010.596 -16475056.579 10 0 60221 44100.00000 0 20916439.092 3879642.642 -14075792.735 10 0 60221 45000.00000 0 22375433.007 4482262.208 -11403122.073 10 0 60221 45900.00000 0 23558930.562 4843335.598 -8508999.938 10 0 60221 46800.00000 0 24419572.903 4996738.355 -5449662.330 10 0 60221 47700.00000 0 24919922.693 4985065.086 -2284531.225 10 0 60221 48600.00000 0 25034037.040 4857574.875 924940.770 10 0 60221 49500.00000 0 24748577.390 4667860.134 4116463.761 10 0 60221 50400.00000 0 24063410.137 4471338.215 7228118.456 10 0 60221 51300.00000 0 22991673.143 4322672.368 10199555.078 10 0 60221 52200.00000 0 21559305.627 4273231.392 12973160.064 10 0 60221 53100.00000 0 19804061.354 4368695.428 15495168.076 10 0 60221 54000.00000 0 17774046.428 4646909.034 17716698.218 10 0 60221 54900.00000 0 15525842.609 5136072.056 19594694.938 10 0 60221 55800.00000 0 13122294.117 5853344.659 21092756.115 10 0 60221 56700.00000 0 10630049.510 6803925.406 22181833.046 10 0 60221 57600.00000 0 8116960.107 7980641.669 22840789.579 10 0 60221 58500.00000 0 5649442.163 9364070.333 23056810.111 10 0 60221 59400.00000 0 3289911.264 10923184.828 22825649.006 10 0 60221 60300.00000 0 1094394.378 12616502.752 22151716.643 10 0 60221 61200.00000 0 -889582.320 14393687.574 21048000.235 10 0 60221 62100.00000 0 -2624743.053 16197538.988 19535820.370 10 0 60221 63000.00000 0 -4085377.528 17966290.183 17644427.199 10 0 60221 63900.00000 0 -5258167.375 19636117.181 15410443.053 10 0 60221 64800.00000 0 -6142489.969 21143756.180 12877161.272 10 0 60221 65700.00000 0 -6750187.349 22429119.805 10093713.793 10 0 60221 66600.00000 0 -7104810.273 23437802.664 7114122.843 10 0 60221 67500.00000 0 -7240369.519 24123370.742 3996254.592 10 0 60221 68400.00000 0 -7199647.461 24449337.790 800694.850 10 0 60221 69300.00000 0 -7032141.652 24390744.652 -2410431.191 10 0 60221 70200.00000 0 -6791728.026 23935274.022 -5574671.767 10 0 60221 71100.00000 0 -6534143.390 23083852.597 -8630469.650 10 0 60221 72000.00000 0 -6314394.774 21850714.301 -11518366.888 10 0 60221 72900.00000 0 -6184206.406 20262921.059 -14182168.883 10 0 60221 73800.00000 0 -6189613.554 18359360.632 -16570044.326 10 0 60221 74700.00000 0 -6368806.155 16189263.244 -18635538.891 10 0 60221 75600.00000 0 -6750314.478 13810298.970 -20338482.545 10 0 60221 76500.00000 0 -7351614.404 11286335.568 -21645772.613 10 0 60221 77400.00000 0 -8178211.983 8684950.550 -22532017.385 10 0 60221 78300.00000 0 -9223246.531 6074801.413 -22980027.976 10 0 60221 79200.00000 0 -10467629.519 3522963.668 -22981149.248 10 0 60221 80100.00000 0 -11880713.842 1092347.356 -22535423.763 10 0 60221 81000.00000 0 -13421465.694 -1160700.797 -21651586.025 10 0 60221 81900.00000 0 -15040090.113 -3188510.497 -20346887.479 10 0 60221 82800.00000 0 -16680042.181 -4953829.216 -18646755.989 10 0 60221 83700.00000 0 -18280339.634 -6431120.459 -16584296.608 10 0 60221 84600.00000 0 -19778080.006 -7607366.291 -14199643.517 10 0 60221 85500.00000 0 -21111056.723 -8482342.256 -11539175.848 99